Time,TemperatureF,DewpointF,PressureIn,WindDirection,WindDirectionDegrees,WindSpeedMPH,WindSpeedGustMPH,Humidity,HourlyPrecipIn,Conditions,Clouds,dailyrainin,SolarRadiationWatts/m^2,SoftwareType,DateUTC
2013-11-13 00:00:00,30.4,27.0,30.22,SSE,155,5.0,7.0,87,0.00,,CLR,0.00,0.00,VWS V14.00,2013-11-13 06:00:00,
2013-11-13 00:05:00,30.2,26.8,30.22,SSE,155,6.0,8.0,87,0.00,,CLR,0.00,0.00,VWS V14.00,2013-11-13 06:05:00,
2013-11-13 00:10:00,29.9,26.5,30.22,SSE,156,5.0,8.0,87,0.00,,CLR,0.00,0.00,VWS V14.00,2013-11-13 06:10:00,
2013-11-13 00:15:00,30.0,26.9,30.21,SSE,156,6.0,8.0,88,0.00,,CLR,0.00,0.00,VWS V14.00,2013-11-13 06:15:00,
2013-11-13 00:21:00,30.3,27.2,30.21,SSE,155,6.0,9.0,88,0.00,,CLR,0.00,0.00,VWS V14.00,2013-11-13 06:21:00,
2013-11-13 00:26:00,30.1,27.0,30.21,SSE,155,7.0,9.0,88,0.00,,CLR,0.00,0.00,VWS V14.00,2013-11-13 06:26:00,
2013-11-13 00:31:00,30.2,27.1,30.21,SSE,155,7.0,8.0,88,0.00,,CLR,0.00,0.00,VWS V14.00,2013-11-13 06:31:00,
2013-11-13 00:36:00,30.2,27.1,30.20,SSE,157,7.0,8.0,88,0.00,,CLR,0.00,0.00,VWS V14.00,2013-11-13 06:36:00,
2013-11-13 00:41:00,30.1,27.0,30.20,SSE,159,5.0,8.0,88,0.00,,CLR,0.00,0.00,VWS V14.00,2013-11-13 06:41:00,
2013-11-13 00:46:00,30.0,26.9,30.20,SSE,161,6.0,9.0,88,0.00,,CLR,0.00,0.00,VWS V14.00,2013-11-13 06:46:00,
2013-11-13 00:51:00,30.0,26.9,30.20,SSE,161,6.0,9.0,88,0.00,,CLR,0.00,0.00,VWS V14.00,2013-11-13 06:51:00,
2013-11-13 00:56:00,30.1,27.0,30.20,SSE,161,6.0,9.0,88,0.00,,CLR,0.00,0.00,VWS V14.00,2013-11-13 06:56:00,
2013-11-13 01:01:00,30.1,27.0,30.19,SSE,162,5.0,7.0,88,0.00,,CLR,0.00,0.00,VWS V14.00,2013-11-13 07:01:00,
2013-11-13 01:06:00,30.3,27.2,30.19,SSE,162,6.0,8.0,88,0.00,,CLR,0.00,0.00,VWS V14.00,2013-11-13 07:06:00,
2013-11-13 01:11:00,30.5,27.4,30.18,SSE,167,8.0,10.0,88,0.00,,CLR,0.00,0.00,VWS V14.00,2013-11-13 07:11:00,
2013-11-13 01:16:00,30.8,27.7,30.18,South,173,8.0,11.0,88,0.00,,CLR,0.00,0.00,VWS V14.00,2013-11-13 07:16:00,
2013-11-13 01:21:00,31.0,27.9,30.18,South,175,9.0,11.0,88,0.00,,CLR,0.00,0.00,VWS V14.00,2013-11-13 07:21:00,
2013-11-13 01:26:00,31.0,27.6,30.17,South,176,7.0,11.0,87,0.00,,CLR,0.00,0.00,VWS V14.00,2013-11-13 07:26:00,
2013-11-13 01:31:00,30.7,27.3,30.17,South,176,4.0,5.0,87,0.00,,CLR,0.00,0.00,VWS V14.00,2013-11-13 07:31:00,
2013-11-13 01:36:00,30.6,27.2,30.17,South,176,3.0,5.0,87,0.00,,CLR,0.00,0.00,VWS V14.00,2013-11-13 07:36:00,
2013-11-13 01:41:00,30.2,26.8,30.17,South,176,6.0,6.0,87,0.00,,CLR,0.00,0.00,VWS V14.00,2013-11-13 07:41:00,
2013-11-13 01:46:00,29.9,26.8,30.17,South,176,3.0,8.0,88,0.00,,CLR,0.00,0.00,VWS V14.00,2013-11-13 07:46:00,
2013-11-13 01:51:00,30.1,27.0,30.17,South,176,2.0,8.0,88,0.00,,CLR,0.00,0.00,VWS V14.00,2013-11-13 07:51:00,
2013-11-13 01:56:00,30.3,27.2,30.16,South,176,5.0,8.0,88,0.00,,CLR,0.00,0.00,VWS V14.00,2013-11-13 07:56:00,
2013-11-13 02:01:00,30.6,27.5,30.16,South,177,8.0,8.0,88,0.00,,CLR,0.00,0.00,VWS V14.00,2013-11-13 08:01:00,
2013-11-13 02:06:00,30.6,27.5,30.16,South,178,6.0,10.0,88,0.00,,CLR,0.00,0.00,VWS V14.00,2013-11-13 08:06:00,
2013-11-13 02:11:00,30.7,27.6,30.15,South,178,4.0,10.0,88,0.00,,CLR,0.00,0.00,VWS V14.00,2013-11-13 08:11:00,
2013-11-13 02:16:00,30.9,27.8,30.15,South,178,8.0,10.0,88,0.00,,CLR,0.00,0.00,VWS V14.00,2013-11-13 08:16:00,
2013-11-13 02:21:00,31.0,27.6,30.15,South,178,5.0,10.0,87,0.00,,CLR,0.00,0.00,VWS V14.00,2013-11-13 08:21:00,
2013-11-13 02:26:00,30.8,27.4,30.15,South,178,8.0,10.0,87,0.00,,CLR,0.00,0.00,VWS V14.00,2013-11-13 08:26:00,
2013-11-13 02:31:00,30.9,27.8,30.14,South,178,9.0,10.0,88,0.00,,CLR,0.00,0.00,VWS V14.00,2013-11-13 08:31:00,
2013-11-13 02:36:00,30.9,27.5,30.14,South,179,7.0,11.0,87,0.00,,CLR,0.00,0.00,VWS V14.00,2013-11-13 08:36:00,
2013-11-13 02:41:00,30.9,27.5,30.14,South,180,7.0,11.0,87,0.00,,CLR,0.00,0.00,VWS V14.00,2013-11-13 08:41:00,
2013-11-13 02:46:00,31.2,28.1,30.14,South,180,6.0,11.0,88,0.00,,CLR,0.00,0.00,VWS V14.00,2013-11-13 08:46:00,
2013-11-13 02:51:00,31.3,27.9,30.14,South,180,9.0,11.0,87,0.00,,CLR,0.00,0.00,VWS V14.00,2013-11-13 08:51:00,
2013-11-13 02:56:00,31.2,27.5,30.13,South,180,6.0,11.0,86,0.00,,CLR,0.00,0.00,VWS V14.00,2013-11-13 08:56:00,
2013-11-13 03:01:00,31.1,27.7,30.13,South,180,6.0,7.0,87,0.00,,CLR,0.00,0.00,VWS V14.00,2013-11-13 09:01:00,
2013-11-13 03:08:00,30.9,27.5,30.12,South,180,5.0,8.0,87,0.00,,CLR,0.00,0.00,VWS V14.00,2013-11-13 09:08:00,
2013-11-13 03:13:00,30.5,27.1,30.12,South,180,5.0,8.0,87,0.00,,CLR,0.00,0.00,VWS V14.00,2013-11-13 09:13:00,
2013-11-13 03:18:00,30.5,27.1,30.12,South,180,5.0,8.0,87,0.00,,CLR,0.00,0.00,VWS V14.00,2013-11-13 09:18:00,
2013-11-13 03:23:00,30.5,27.1,30.12,South,180,4.0,8.0,87,0.00,,CLR,0.00,0.00,VWS V14.00,2013-11-13 09:23:00,
2013-11-13 03:28:00,30.8,27.7,30.12,South,180,4.0,8.0,88,0.00,,CLR,0.00,0.00,VWS V14.00,2013-11-13 09:28:00,
2013-11-13 03:33:00,31.1,28.0,30.11,South,180,5.0,7.0,88,0.00,,CLR,0.00,0.00,VWS V14.00,2013-11-13 09:33:00,
2013-11-13 03:38:00,31.3,27.9,30.11,South,180,4.0,8.0,87,0.00,,CLR,0.00,0.00,VWS V14.00,2013-11-13 09:38:00,
2013-11-13 03:43:00,31.2,27.8,30.11,South,180,6.0,8.0,87,0.00,,CLR,0.00,0.00,VWS V14.00,2013-11-13 09:43:00,
2013-11-13 03:48:00,31.2,27.8,30.10,South,180,6.0,9.0,87,0.00,,CLR,0.00,0.00,VWS V14.00,2013-11-13 09:48:00,
2013-11-13 03:53:00,31.2,27.8,30.10,South,180,6.0,9.0,87,0.00,,CLR,0.00,0.00,VWS V14.00,2013-11-13 09:53:00,
2013-11-13 03:58:00,30.8,27.1,30.10,South,180,4.0,9.0,86,0.00,,CLR,0.00,0.00,VWS V14.00,2013-11-13 09:58:00,
2013-11-13 04:03:00,30.6,27.2,30.10,South,180,3.0,5.0,87,0.00,,CLR,0.00,0.00,VWS V14.00,2013-11-13 10:03:00,
2013-11-13 04:08:00,30.6,27.2,30.10,South,180,5.0,7.0,87,0.00,,CLR,0.00,0.00,VWS V14.00,2013-11-13 10:08:00,
2013-11-13 04:13:00,30.2,26.5,30.11,South,183,5.0,9.0,86,0.00,,CLR,0.00,0.00,VWS V14.00,2013-11-13 10:13:00,
2013-11-13 04:18:00,30.0,26.6,30.10,South,184,6.0,9.0,87,0.00,,CLR,0.00,0.00,VWS V14.00,2013-11-13 10:18:00,
2013-11-13 04:23:00,29.7,26.3,30.10,South,184,5.0,9.0,87,0.00,,CLR,0.00,0.00,VWS V14.00,2013-11-13 10:23:00,
2013-11-13 04:28:00,29.5,26.4,30.10,South,184,5.0,9.0,88,0.00,,CLR,0.00,0.00,VWS V14.00,2013-11-13 10:28:00,
2013-11-13 04:33:00,29.4,26.3,30.09,South,184,4.0,5.0,88,0.00,,CLR,0.00,0.00,VWS V14.00,2013-11-13 10:33:00,
2013-11-13 04:38:00,29.4,26.3,30.09,South,184,3.0,5.0,88,0.00,,CLR,0.00,0.00,VWS V14.00,2013-11-13 10:38:00,
2013-11-13 04:43:00,29.4,26.3,30.09,South,184,4.0,5.0,88,0.00,,CLR,0.00,0.00,VWS V14.00,2013-11-13 10:43:00,
2013-11-13 04:48:00,29.5,26.7,30.09,South,184,5.0,5.0,89,0.00,,CLR,0.00,0.00,VWS V14.00,2013-11-13 10:48:00,
2013-11-13 04:53:00,29.5,26.7,30.08,South,184,6.0,6.0,89,0.00,,CLR,0.00,0.00,VWS V14.00,2013-11-13 10:53:00,
2013-11-13 04:58:00,29.3,26.2,30.08,South,184,6.0,7.0,88,0.00,,CLR,0.00,0.00,VWS V14.00,2013-11-13 10:58:00,
2013-11-13 05:03:00,29.3,26.5,30.08,South,184,5.0,7.0,89,0.00,,CLR,0.00,0.00,VWS V14.00,2013-11-13 11:03:00,
2013-11-13 05:08:00,29.7,26.9,30.08,South,184,3.0,7.0,89,0.00,,CLR,0.00,0.00,VWS V14.00,2013-11-13 11:08:00,
2013-11-13 05:13:00,30.1,27.3,30.08,South,184,3.0,7.0,89,0.00,,CLR,0.00,0.00,VWS V14.00,2013-11-13 11:13:00,
2013-11-13 05:18:00,30.3,27.2,30.08,South,184,4.0,7.0,88,0.00,,CLR,0.00,0.00,VWS V14.00,2013-11-13 11:18:00,
2013-11-13 05:23:00,30.6,27.5,30.07,South,184,6.0,7.0,88,0.00,,CLR,0.00,0.00,VWS V14.00,2013-11-13 11:23:00,
2013-11-13 05:28:00,30.6,27.2,30.07,South,184,4.0,7.0,87,0.00,,CLR,0.00,0.00,VWS V14.00,2013-11-13 11:28:00,
2013-11-13 05:33:00,30.8,27.4,30.06,South,184,5.0,6.0,87,0.00,,CLR,0.00,0.00,VWS V14.00,2013-11-13 11:33:00,
2013-11-13 05:38:00,30.8,27.1,30.06,South,184,6.0,7.0,86,0.00,,CLR,0.00,0.00,VWS V14.00,2013-11-13 11:38:00,
2013-11-13 05:43:00,30.7,27.0,30.06,South,184,6.0,7.0,86,0.00,,CLR,0.00,0.00,VWS V14.00,2013-11-13 11:43:00,
2013-11-13 05:48:00,30.3,26.6,30.06,South,184,5.0,7.0,86,0.00,,CLR,0.00,0.00,VWS V14.00,2013-11-13 11:48:00,
2013-11-13 05:53:00,30.3,26.9,30.06,South,184,5.0,7.0,87,0.00,,CLR,0.00,0.00,VWS V14.00,2013-11-13 11:53:00,
2013-11-13 05:59:00,30.5,26.8,30.06,South,184,6.0,7.0,86,0.00,,CLR,0.00,0.00,VWS V14.00,2013-11-13 11:59:00,
2013-11-13 06:04:00,30.5,26.8,30.06,South,184,6.0,7.0,86,0.00,,CLR,0.00,0.00,VWS V14.00,2013-11-13 12:04:00,
2013-11-13 06:09:00,30.3,26.6,30.06,South,186,6.0,8.0,86,0.00,,CLR,0.00,0.00,VWS V14.00,2013-11-13 12:09:00,
2013-11-13 06:14:00,30.2,26.8,30.06,South,189,7.0,8.0,87,0.00,,CLR,0.00,0.00,VWS V14.00,2013-11-13 12:14:00,
2013-11-13 06:19:00,30.3,26.9,30.06,South,190,6.0,8.0,87,0.00,,CLR,0.00,0.00,VWS V14.00,2013-11-13 12:19:00,
2013-11-13 06:24:00,30.3,26.9,30.05,South,190,5.0,8.0,87,0.00,,CLR,0.00,0.00,VWS V14.00,2013-11-13 12:24:00,
2013-11-13 06:29:00,30.3,26.9,30.05,South,190,5.0,8.0,87,0.00,,CLR,0.00,0.00,VWS V14.00,2013-11-13 12:29:00,
2013-11-13 06:34:00,30.7,27.3,30.05,South,190,6.0,8.0,87,0.00,,CLR,0.00,0.00,VWS V14.00,2013-11-13 12:34:00,
2013-11-13 06:39:00,31.4,28.0,30.05,South,190,6.0,8.0,87,0.00,,CLR,0.00,0.00,VWS V14.00,2013-11-13 12:39:00,
2013-11-13 06:44:00,31.6,27.9,30.05,South,190,3.0,8.0,86,0.00,,CLR,0.00,0.00,VWS V14.00,2013-11-13 12:44:00,
2013-11-13 06:49:00,32.1,28.4,30.06,SSW,195,6.0,8.0,86,0.00,,CLR,0.00,0.00,VWS V14.00,2013-11-13 12:49:00,
2013-11-13 06:54:00,32.5,28.5,30.05,SSW,196,7.0,8.0,85,0.00,,CLR,0.00,0.00,VWS V14.00,2013-11-13 12:54:00,
2013-11-13 06:59:00,32.8,28.8,30.06,SSW,196,6.0,8.0,85,0.00,,CLR,0.00,0.00,VWS V14.00,2013-11-13 12:59:00,
2013-11-13 07:04:00,33.2,28.9,30.06,SSW,200,7.0,7.0,84,0.00,,CLR,0.00,0.00,VWS V14.00,2013-11-13 13:04:00,
2013-11-13 07:09:00,33.7,29.4,30.06,SSW,207,7.0,7.0,84,0.00,,CLR,0.00,0.00,VWS V14.00,2013-11-13 13:09:00,
2013-11-13 07:14:00,34.8,30.2,30.05,SW,217,7.0,9.0,83,0.00,,CLR,0.00,0.00,VWS V14.00,2013-11-13 13:14:00,
2013-11-13 07:19:00,34.5,29.6,30.05,SW,217,7.0,9.0,82,0.00,,CLR,0.00,0.00,VWS V14.00,2013-11-13 13:19:00,
2013-11-13 07:24:00,34.5,29.6,30.05,SW,217,7.0,9.0,82,0.00,,CLR,0.00,0.00,VWS V14.00,2013-11-13 13:24:00,
2013-11-13 07:29:00,34.6,29.7,30.05,SW,217,4.0,9.0,82,0.00,,CLR,0.00,5.00,VWS V14.00,2013-11-13 13:29:00,
2013-11-13 07:34:00,35.1,30.2,30.05,SW,217,6.0,7.0,82,0.00,,CLR,0.00,7.00,VWS V14.00,2013-11-13 13:34:00,
2013-11-13 07:39:00,35.0,29.8,30.05,SW,217,6.0,7.0,81,0.00,,CLR,0.00,7.00,VWS V14.00,2013-11-13 13:39:00,
2013-11-13 07:44:00,34.8,29.9,30.04,SW,217,7.0,8.0,82,0.00,,CLR,0.00,5.00,VWS V14.00,2013-11-13 13:44:00,
2013-11-13 07:49:00,35.0,30.4,30.04,SW,218,7.0,10.0,83,0.00,,CLR,0.00,9.00,VWS V14.00,2013-11-13 13:49:00,
2013-11-13 07:54:00,35.4,30.8,30.05,SW,219,7.0,10.0,83,0.00,,CLR,0.00,12.00,VWS V14.00,2013-11-13 13:54:00,
2013-11-13 07:59:00,35.9,31.2,30.04,SW,219,7.0,7.0,83,0.00,,CLR,0.00,16.00,VWS V14.00,2013-11-13 13:59:00,
2013-11-13 08:04:00,36.3,31.3,30.05,SW,219,7.0,8.0,82,0.00,,CLR,0.00,25.00,VWS V14.00,2013-11-13 14:04:00,
2013-11-13 08:09:00,36.6,31.6,30.05,SW,219,4.0,8.0,82,0.00,,CLR,0.00,32.00,VWS V14.00,2013-11-13 14:09:00,
2013-11-13 08:14:00,37.2,32.2,30.05,SW,219,7.0,8.0,82,0.00,,CLR,0.00,37.00,VWS V14.00,2013-11-13 14:14:00,
2013-11-13 08:19:00,37.6,32.3,30.05,SW,220,8.0,10.0,81,0.00,,CLR,0.00,47.00,VWS V14.00,2013-11-13 14:19:00,
2013-11-13 08:24:00,37.9,32.6,30.04,SW,226,9.0,11.0,81,0.00,,CLR,0.00,44.00,VWS V14.00,2013-11-13 14:24:00,
2013-11-13 08:29:00,38.7,33.1,30.05,SW,232,8.0,9.0,80,0.00,,CLR,0.00,44.00,VWS V14.00,2013-11-13 14:29:00,
2013-11-13 08:34:00,39.0,33.7,30.04,SW,232,8.0,10.0,81,0.00,,CLR,0.00,47.00,VWS V14.00,2013-11-13 14:34:00,
2013-11-13 08:39:00,39.8,34.1,30.04,SW,234,8.0,11.0,80,0.00,,CLR,0.00,53.00,VWS V14.00,2013-11-13 14:39:00,
2013-11-13 08:44:00,40.2,34.5,30.05,WSW,239,10.0,11.0,80,0.00,,CLR,0.00,65.00,VWS V14.00,2013-11-13 14:44:00,
2013-11-13 08:49:00,40.7,34.7,30.05,WSW,243,8.0,11.0,79,0.00,,CLR,0.00,60.00,VWS V14.00,2013-11-13 14:49:00,
2013-11-13 08:54:00,41.1,35.1,30.05,WSW,248,11.0,12.0,79,0.00,,CLR,0.00,63.00,VWS V14.00,2013-11-13 14:54:00,
2013-11-13 09:00:00,41.2,34.9,30.04,WSW,248,9.0,10.0,78,0.00,,CLR,0.00,70.00,VWS V14.00,2013-11-13 15:00:00,
2013-11-13 09:05:00,41.5,34.8,30.04,WSW,240,10.0,13.0,77,0.00,,CLR,0.00,76.00,VWS V14.00,2013-11-13 15:05:00,
2013-11-13 09:10:00,41.7,35.0,30.04,WSW,244,9.0,13.0,77,0.00,,CLR,0.00,84.00,VWS V14.00,2013-11-13 15:10:00,
2013-11-13 09:15:00,41.9,35.5,30.04,WSW,251,8.0,13.0,78,0.00,,CLR,0.00,90.00,VWS V14.00,2013-11-13 15:15:00,
2013-11-13 09:20:00,42.6,35.9,30.03,WSW,254,10.0,14.0,77,0.00,,CLR,0.00,90.00,VWS V14.00,2013-11-13 15:20:00,
2013-11-13 09:25:00,42.7,35.7,30.03,WSW,243,12.0,14.0,76,0.00,,CLR,0.00,90.00,VWS V14.00,2013-11-13 15:25:00,
2013-11-13 09:30:00,43.0,35.6,30.04,WSW,254,9.0,10.0,75,0.00,,CLR,0.00,95.00,VWS V14.00,2013-11-13 15:30:00,
2013-11-13 09:35:00,43.1,35.7,30.04,WSW,257,11.0,14.0,75,0.00,,CLR,0.00,111.00,VWS V14.00,2013-11-13 15:35:00,
2013-11-13 09:40:00,43.5,36.1,30.04,WSW,251,10.0,14.0,75,0.00,,CLR,0.00,134.00,VWS V14.00,2013-11-13 15:40:00,
2013-11-13 09:45:00,43.6,36.5,30.04,WSW,252,11.0,14.0,76,0.00,,CLR,0.00,146.00,VWS V14.00,2013-11-13 15:45:00,
2013-11-13 09:50:00,43.9,36.5,30.03,WSW,248,10.0,14.0,75,0.00,,CLR,0.00,155.00,VWS V14.00,2013-11-13 15:50:00,
2013-11-13 09:55:00,44.3,36.5,30.03,WSW,251,9.0,14.0,74,0.00,,CLR,0.00,158.00,VWS V14.00,2013-11-13 15:55:00,
2013-11-13 10:00:00,44.6,37.5,30.03,WSW,254,9.0,10.0,76,0.00,,CLR,0.00,188.00,VWS V14.00,2013-11-13 16:00:00,
2013-11-13 10:05:00,45.1,37.3,30.03,WSW,257,11.0,13.0,74,0.00,,CLR,0.00,190.00,VWS V14.00,2013-11-13 16:05:00,
2013-11-13 10:10:00,45.8,37.3,30.03,West,268,9.0,14.0,72,0.00,,CLR,0.00,257.00,VWS V14.00,2013-11-13 16:10:00,
2013-11-13 10:15:00,46.6,37.7,30.03,West,265,9.0,15.0,71,0.00,,CLR,0.00,234.00,VWS V14.00,2013-11-13 16:15:00,
2013-11-13 10:20:00,47.3,38.0,30.03,West,271,10.0,15.0,70,0.00,,CLR,0.00,206.00,VWS V14.00,2013-11-13 16:20:00,
2013-11-13 10:25:00,47.8,38.1,30.03,WSW,251,16.0,17.0,69,0.00,,CLR,0.00,181.00,VWS V14.00,2013-11-13 16:25:00,
2013-11-13 10:30:00,48.3,38.2,30.03,West,278,14.0,16.0,68,0.00,,CLR,0.00,163.00,VWS V14.00,2013-11-13 16:30:00,
2013-11-13 10:35:00,48.9,38.1,30.02,WNW,288,10.0,19.0,66,0.00,,CLR,0.00,158.00,VWS V14.00,2013-11-13 16:35:00,
2013-11-13 10:40:00,49.1,37.5,30.02,West,281,13.0,21.0,64,0.00,,CLR,0.00,156.00,VWS V14.00,2013-11-13 16:40:00,
2013-11-13 10:45:00,49.3,37.2,30.03,WNW,284,13.0,21.0,63,0.00,,CLR,0.00,153.00,VWS V14.00,2013-11-13 16:45:00,
2013-11-13 10:50:00,49.3,37.2,30.02,West,276,17.0,21.0,63,0.00,,CLR,0.00,153.00,VWS V14.00,2013-11-13 16:50:00,
2013-11-13 10:55:00,49.3,36.8,30.02,WNW,287,15.0,21.0,62,0.00,,CLR,0.00,179.00,VWS V14.00,2013-11-13 16:55:00,
2013-11-13 11:00:00,49.3,36.8,30.03,WNW,289,14.0,19.0,62,0.00,,CLR,0.00,190.00,VWS V14.00,2013-11-13 17:00:00,
2013-11-13 11:05:00,49.4,36.9,30.03,WNW,284,10.0,19.0,62,0.00,,CLR,0.00,243.00,VWS V14.00,2013-11-13 17:05:00,
2013-11-13 11:10:00,49.3,36.4,30.02,WNW,282,15.0,19.0,61,0.00,,CLR,0.00,156.00,VWS V14.00,2013-11-13 17:10:00,
2013-11-13 11:15:00,49.1,36.7,30.03,WNW,282,14.0,19.0,62,0.00,,CLR,0.00,169.00,VWS V14.00,2013-11-13 17:15:00,
2013-11-13 11:21:00,49.2,36.8,30.02,West,273,16.0,19.0,62,0.00,,CLR,0.00,199.00,VWS V14.00,2013-11-13 17:21:00,
2013-11-13 11:26:00,49.3,36.4,30.02,West,276,12.0,19.0,61,0.00,,CLR,0.00,193.00,VWS V14.00,2013-11-13 17:26:00,
2013-11-13 11:31:00,49.4,36.5,30.02,WNW,292,12.0,17.0,61,0.00,,CLR,0.00,209.00,VWS V14.00,2013-11-13 17:31:00,
2013-11-13 11:36:00,49.7,36.8,30.02,WNW,294,12.0,19.0,61,0.00,,CLR,0.00,225.00,VWS V14.00,2013-11-13 17:36:00,
2013-11-13 11:41:00,49.8,36.5,30.03,WNW,290,17.0,19.0,60,0.00,,CLR,0.00,243.00,VWS V14.00,2013-11-13 17:41:00,
2013-11-13 11:46:00,50.1,36.8,30.02,WNW,296,10.0,19.0,60,0.00,,CLR,0.00,279.00,VWS V14.00,2013-11-13 17:46:00,
2013-11-13 11:51:00,50.4,37.0,30.02,WNW,284,12.0,19.0,60,0.00,,CLR,0.00,250.00,VWS V14.00,2013-11-13 17:51:00,
2013-11-13 11:56:00,50.3,36.5,30.02,WNW,300,10.0,19.0,59,0.00,,CLR,0.00,193.00,VWS V14.00,2013-11-13 17:56:00,
2013-11-13 12:01:00,50.3,36.5,30.02,West,279,11.0,17.0,59,0.00,,CLR,0.00,195.00,VWS V14.00,2013-11-13 18:01:00,
2013-11-13 12:06:00,50.2,36.4,30.02,WNW,291,10.0,17.0,59,0.00,,CLR,0.00,186.00,VWS V14.00,2013-11-13 18:06:00,
2013-11-13 12:11:00,50.2,36.4,30.02,West,275,12.0,17.0,59,0.00,,CLR,0.00,183.00,VWS V14.00,2013-11-13 18:11:00,
2013-11-13 12:16:00,50.1,36.3,30.02,WNW,288,11.0,17.0,59,0.00,,CLR,0.00,163.00,VWS V14.00,2013-11-13 18:16:00,
2013-11-13 12:21:00,50.2,36.4,30.02,WNW,300,8.0,17.0,59,0.00,,CLR,0.00,165.00,VWS V14.00,2013-11-13 18:21:00,
2013-11-13 12:26:00,50.2,36.4,30.02,NW,307,10.0,17.0,59,0.00,,CLR,0.00,169.00,VWS V14.00,2013-11-13 18:26:00,
2013-11-13 12:31:00,50.3,36.5,30.01,NW,304,13.0,13.0,59,0.00,,CLR,0.00,186.00,VWS V14.00,2013-11-13 18:31:00,
2013-11-13 12:36:00,50.3,36.5,30.01,WNW,288,13.0,15.0,59,0.00,,CLR,0.00,193.00,VWS V14.00,2013-11-13 18:36:00,
2013-11-13 12:41:00,50.3,36.5,30.01,WNW,296,10.0,15.0,59,0.00,,CLR,0.00,169.00,VWS V14.00,2013-11-13 18:41:00,
2013-11-13 12:46:00,50.3,36.5,30.01,WNW,294,10.0,15.0,59,0.00,,CLR,0.00,160.00,VWS V14.00,2013-11-13 18:46:00,
2013-11-13 12:51:00,50.2,36.4,30.00,WNW,287,10.0,15.0,59,0.00,,CLR,0.00,158.00,VWS V14.00,2013-11-13 18:51:00,
2013-11-13 12:56:00,50.0,36.2,30.00,WNW,283,8.0,16.0,59,0.00,,CLR,0.00,174.00,VWS V14.00,2013-11-13 18:56:00,
2013-11-13 13:01:00,49.9,36.2,30.00,WNW,299,8.0,14.0,59,0.00,,CLR,0.00,151.00,VWS V14.00,2013-11-13 19:01:00,
2013-11-13 13:06:00,49.9,36.2,30.00,WNW,294,9.0,14.0,59,0.00,,CLR,0.00,167.00,VWS V14.00,2013-11-13 19:06:00,
2013-11-13 13:11:00,49.8,36.1,30.00,West,272,14.0,16.0,59,0.00,,CLR,0.00,155.00,VWS V14.00,2013-11-13 19:11:00,
2013-11-13 13:16:00,49.7,36.4,30.00,West,263,14.0,16.0,60,0.00,,CLR,0.00,149.00,VWS V14.00,2013-11-13 19:16:00,
2013-11-13 13:21:00,49.6,36.3,30.01,WNW,290,15.0,19.0,60,0.00,,CLR,0.00,144.00,VWS V14.00,2013-11-13 19:21:00,
2013-11-13 13:26:00,49.5,36.2,30.00,WNW,288,16.0,19.0,60,0.00,,CLR,0.00,149.00,VWS V14.00,2013-11-13 19:26:00,
2013-11-13 13:31:00,49.6,36.3,30.00,West,276,12.0,16.0,60,0.00,,CLR,0.00,153.00,VWS V14.00,2013-11-13 19:31:00,
2013-11-13 13:36:00,49.8,36.5,30.00,WNW,296,12.0,16.0,60,0.00,,CLR,0.00,163.00,VWS V14.00,2013-11-13 19:36:00,
2013-11-13 13:41:00,50.0,36.2,30.00,WNW,292,12.0,17.0,59,0.00,,CLR,0.00,153.00,VWS V14.00,2013-11-13 19:41:00,
2013-11-13 13:46:00,50.1,36.3,30.00,WNW,287,12.0,17.0,59,0.00,,CLR,0.00,153.00,VWS V14.00,2013-11-13 19:46:00,
2013-11-13 13:51:00,50.3,36.5,30.00,WNW,287,8.0,17.0,59,0.00,,CLR,0.00,156.00,VWS V14.00,2013-11-13 19:51:00,
2013-11-13 13:56:00,50.4,36.2,29.99,WNW,288,13.0,20.0,58,0.00,,CLR,0.00,139.00,VWS V14.00,2013-11-13 19:56:00,
2013-11-13 14:01:00,50.5,36.3,29.99,WNW,292,9.0,14.0,58,0.00,,CLR,0.00,132.00,VWS V14.00,2013-11-13 20:01:00,
2013-11-13 14:06:00,50.6,36.4,29.98,WNW,286,13.0,15.0,58,0.00,,CLR,0.00,151.00,VWS V14.00,2013-11-13 20:06:00,
2013-11-13 14:11:00,50.8,36.1,29.98,WNW,288,17.0,17.0,57,0.00,,CLR,0.00,155.00,VWS V14.00,2013-11-13 20:11:00,
2013-11-13 14:17:00,50.9,36.2,29.98,WNW,285,15.0,18.0,57,0.00,,CLR,0.00,153.00,VWS V14.00,2013-11-13 20:17:00,
2013-11-13 14:22:00,50.9,36.2,29.98,WNW,285,12.0,18.0,57,0.00,,CLR,0.00,155.00,VWS V14.00,2013-11-13 20:22:00,
2013-11-13 14:27:00,51.0,35.9,29.98,West,270,15.0,18.0,56,0.00,,CLR,0.00,236.00,VWS V14.00,2013-11-13 20:27:00,
2013-11-13 14:32:00,51.4,36.2,29.98,WNW,284,14.0,15.0,56,0.00,,CLR,0.00,174.00,VWS V14.00,2013-11-13 20:32:00,
2013-11-13 14:37:00,51.2,36.1,29.99,West,281,11.0,18.0,56,0.00,,CLR,0.00,148.00,VWS V14.00,2013-11-13 20:37:00,
2013-11-13 14:42:00,51.1,36.0,29.99,WNW,289,10.0,18.0,56,0.00,,CLR,0.00,171.00,VWS V14.00,2013-11-13 20:42:00,
2013-11-13 14:47:00,51.5,36.3,29.99,West,276,9.0,18.0,56,0.00,,CLR,0.00,264.00,VWS V14.00,2013-11-13 20:47:00,
2013-11-13 14:52:00,51.8,36.2,29.98,WNW,283,9.0,18.0,55,0.00,,CLR,0.00,167.00,VWS V14.00,2013-11-13 20:52:00,
2013-11-13 14:57:00,51.6,36.0,29.98,West,273,9.0,18.0,55,0.00,,CLR,0.00,132.00,VWS V14.00,2013-11-13 20:57:00,
2013-11-13 15:02:00,51.4,36.2,29.98,West,272,9.0,13.0,56,0.00,,CLR,0.00,118.00,VWS V14.00,2013-11-13 21:02:00,
2013-11-13 15:07:00,51.2,36.1,29.98,West,271,9.0,13.0,56,0.00,,CLR,0.00,109.00,VWS V14.00,2013-11-13 21:07:00,
2013-11-13 15:12:00,51.2,36.1,29.97,West,269,8.0,13.0,56,0.00,,CLR,0.00,113.00,VWS V14.00,2013-11-13 21:12:00,
2013-11-13 15:17:00,51.2,36.5,29.97,West,265,9.0,13.0,57,0.00,,CLR,0.00,113.00,VWS V14.00,2013-11-13 21:17:00,
2013-11-13 15:22:00,51.2,36.5,29.97,West,268,9.0,13.0,57,0.00,,CLR,0.00,98.00,VWS V14.00,2013-11-13 21:22:00,
2013-11-13 15:27:00,51.2,36.1,29.97,West,281,7.0,13.0,56,0.00,,CLR,0.00,97.00,VWS V14.00,2013-11-13 21:27:00,
2013-11-13 15:32:00,51.1,36.0,29.97,WNW,284,8.0,11.0,56,0.00,,CLR,0.00,97.00,VWS V14.00,2013-11-13 21:32:00,
2013-11-13 15:37:00,51.1,36.0,29.97,WNW,288,6.0,11.0,56,0.00,,CLR,0.00,86.00,VWS V14.00,2013-11-13 21:37:00,
2013-11-13 15:42:00,51.1,36.0,29.97,WNW,294,6.0,11.0,56,0.00,,CLR,0.00,69.00,VWS V14.00,2013-11-13 21:42:00,
2013-11-13 15:47:00,50.9,35.8,29.96,WNW,295,5.0,11.0,56,0.00,,CLR,0.00,62.00,VWS V14.00,2013-11-13 21:47:00,
2013-11-13 15:52:00,50.5,35.8,29.96,WNW,295,6.0,11.0,57,0.00,,CLR,0.00,54.00,VWS V14.00,2013-11-13 21:52:00,
2013-11-13 15:57:00,50.1,35.9,29.96,WNW,296,5.0,11.0,58,0.00,,CLR,0.00,49.00,VWS V14.00,2013-11-13 21:57:00,
2013-11-13 16:02:00,49.9,35.7,29.96,WNW,296,4.0,6.0,58,0.00,,CLR,0.00,44.00,VWS V14.00,2013-11-13 22:02:00,
2013-11-13 16:07:00,50.0,35.8,29.96,WNW,296,5.0,8.0,58,0.00,,CLR,0.00,42.00,VWS V14.00,2013-11-13 22:07:00,
2013-11-13 16:12:00,49.9,35.7,29.96,WNW,296,6.0,8.0,58,0.00,,CLR,0.00,37.00,VWS V14.00,2013-11-13 22:12:00,
2013-11-13 16:19:00,49.7,36.0,29.96,WNW,299,6.0,8.0,59,0.00,,CLR,0.00,32.00,VWS V14.00,2013-11-13 22:19:00,
2013-11-13 16:24:00,49.1,35.4,29.96,WNW,299,6.0,9.0,59,0.00,,CLR,0.00,28.00,VWS V14.00,2013-11-13 22:24:00,
2013-11-13 16:29:00,48.6,35.8,29.96,WNW,298,5.0,9.0,61,0.00,,CLR,0.00,23.00,VWS V14.00,2013-11-13 22:29:00,
2013-11-13 16:34:00,48.5,35.7,29.96,WNW,298,5.0,7.0,61,0.00,,CLR,0.00,23.00,VWS V14.00,2013-11-13 22:34:00,
2013-11-13 16:39:00,48.0,35.2,29.96,WNW,298,4.0,7.0,61,0.00,,CLR,0.00,23.00,VWS V14.00,2013-11-13 22:39:00,
2013-11-13 16:44:00,47.7,35.3,29.96,WNW,298,4.0,7.0,62,0.00,,CLR,0.00,18.00,VWS V14.00,2013-11-13 22:44:00,
2013-11-13 16:49:00,47.5,35.5,29.96,WNW,298,3.0,7.0,63,0.00,,CLR,0.00,12.00,VWS V14.00,2013-11-13 22:49:00,
2013-11-13 16:54:00,47.3,35.4,29.96,WNW,298,3.0,7.0,63,0.00,,CLR,0.00,9.00,VWS V14.00,2013-11-13 22:54:00,
2013-11-13 16:59:00,47.5,35.5,29.95,WNW,298,4.0,7.0,63,0.00,,CLR,0.00,7.00,VWS V14.00,2013-11-13 22:59:00,
2013-11-13 17:04:00,47.5,35.5,29.95,WNW,298,5.0,7.0,63,0.00,,CLR,0.00,5.00,VWS V14.00,2013-11-13 23:04:00,
2013-11-13 17:09:00,47.3,35.4,29.95,WNW,298,7.0,8.0,63,0.00,,CLR,0.00,0.00,VWS V14.00,2013-11-13 23:09:00,
2013-11-13 17:14:00,47.1,35.2,29.95,WNW,298,5.0,8.0,63,0.00,,CLR,0.00,0.00,VWS V14.00,2013-11-13 23:14:00,
2013-11-13 17:19:00,46.9,35.4,29.95,WNW,298,5.0,8.0,64,0.00,,CLR,0.00,0.00,VWS V14.00,2013-11-13 23:19:00,
2013-11-13 17:24:00,46.8,35.3,29.95,WNW,298,5.0,8.0,64,0.00,,CLR,0.00,0.00,VWS V14.00,2013-11-13 23:24:00,
2013-11-13 17:29:00,46.5,35.0,29.95,WNW,298,2.0,8.0,64,0.00,,CLR,0.00,0.00,VWS V14.00,2013-11-13 23:29:00,
2013-11-13 17:34:00,46.1,34.6,29.96,WNW,298,3.0,4.0,64,0.00,,CLR,0.00,0.00,VWS V14.00,2013-11-13 23:34:00,
2013-11-13 17:39:00,45.5,34.8,29.95,WNW,298,2.0,4.0,66,0.00,,CLR,0.00,0.00,VWS V14.00,2013-11-13 23:39:00,
2013-11-13 17:44:00,45.2,34.9,29.95,WNW,298,0.0,4.0,67,0.00,,CLR,0.00,0.00,VWS V14.00,2013-11-13 23:44:00,
2013-11-13 17:49:00,45.1,34.8,29.95,WNW,298,2.0,4.0,67,0.00,,CLR,0.00,0.00,VWS V14.00,2013-11-13 23:49:00,
2013-11-13 17:54:00,45.0,35.1,29.95,WNW,298,4.0,5.0,68,0.00,,CLR,0.00,0.00,VWS V14.00,2013-11-13 23:54:00,
2013-11-13 17:59:00,45.3,35.0,29.95,WNW,298,4.0,6.0,67,0.00,,CLR,0.00,0.00,VWS V14.00,2013-11-13 23:59:00,
2013-11-13 18:04:00,45.4,35.1,29.96,WNW,298,5.0,6.0,67,0.00,,CLR,0.00,0.00,VWS V14.00,2013-11-14 00:04:00,
2013-11-13 18:09:00,45.1,34.8,29.96,WNW,298,5.0,6.0,67,0.00,,CLR,0.00,0.00,VWS V14.00,2013-11-14 00:09:00,
2013-11-13 18:14:00,45.3,35.4,29.96,WNW,298,4.0,6.0,68,0.00,,CLR,0.00,0.00,VWS V14.00,2013-11-14 00:14:00,
2013-11-13 18:19:00,45.5,35.2,29.96,WNW,298,4.0,6.0,67,0.00,,CLR,0.00,0.00,VWS V14.00,2013-11-14 00:19:00,
2013-11-13 18:24:00,45.3,35.0,29.97,WNW,298,2.0,6.0,67,0.00,,CLR,0.00,0.00,VWS V14.00,2013-11-14 00:24:00,
2013-11-13 18:29:00,45.0,35.1,29.97,WNW,298,3.0,3.0,68,0.00,,CLR,0.00,0.00,VWS V14.00,2013-11-14 00:29:00,
2013-11-13 18:34:00,44.5,35.0,29.97,WNW,298,2.0,4.0,69,0.00,,CLR,0.00,0.00,VWS V14.00,2013-11-14 00:34:00,
2013-11-13 18:39:00,44.3,34.8,29.97,WNW,298,1.0,4.0,69,0.00,,CLR,0.00,0.00,VWS V14.00,2013-11-14 00:39:00,
2013-11-13 18:44:00,44.2,35.0,29.97,WNW,298,2.0,4.0,70,0.00,,CLR,0.00,0.00,VWS V14.00,2013-11-14 00:44:00,
2013-11-13 18:49:00,44.1,35.0,29.97,WNW,298,2.0,4.0,70,0.00,,CLR,0.00,0.00,VWS V14.00,2013-11-14 00:49:00,
2013-11-13 18:54:00,43.8,34.7,29.97,WNW,298,3.0,4.0,70,0.00,,CLR,0.00,0.00,VWS V14.00,2013-11-14 00:54:00,
2013-11-13 19:00:00,44.1,35.3,29.97,WNW,298,4.0,4.0,71,0.00,,CLR,0.00,0.00,VWS V14.00,2013-11-14 01:00:00,
2013-11-13 19:05:00,44.5,35.3,29.97,WNW,298,3.0,5.0,70,0.00,,CLR,0.00,0.00,VWS V14.00,2013-11-14 01:05:00,
2013-11-13 19:10:00,44.5,35.0,29.97,WNW,298,6.0,6.0,69,0.00,,CLR,0.00,0.00,VWS V14.00,2013-11-14 01:10:00,
2013-11-13 19:15:00,44.0,34.9,29.97,WNW,298,4.0,6.0,70,0.00,,CLR,0.00,0.00,VWS V14.00,2013-11-14 01:15:00,
2013-11-13 19:20:00,43.6,34.8,29.97,WNW,298,4.0,6.0,71,0.00,,CLR,0.00,0.00,VWS V14.00,2013-11-14 01:20:00,
2013-11-13 19:25:00,43.5,34.7,29.96,WNW,298,6.0,6.0,71,0.00,,CLR,0.00,0.00,VWS V14.00,2013-11-14 01:25:00,
2013-11-13 19:30:00,43.4,34.6,29.96,WNW,297,3.0,4.0,71,0.00,,CLR,0.00,0.00,VWS V14.00,2013-11-14 01:30:00,
2013-11-13 19:35:00,43.2,34.8,29.96,WNW,297,4.0,5.0,72,0.00,,CLR,0.00,0.00,VWS V14.00,2013-11-14 01:35:00,
2013-11-13 19:40:00,43.0,34.6,29.96,WNW,297,3.0,5.0,72,0.00,,CLR,0.00,0.00,VWS V14.00,2013-11-14 01:40:00,
2013-11-13 19:45:00,42.8,34.8,29.96,WNW,297,3.0,5.0,73,0.00,,CLR,0.00,0.00,VWS V14.00,2013-11-14 01:45:00,
2013-11-13 19:50:00,42.7,34.7,29.95,WNW,297,3.0,5.0,73,0.00,,CLR,0.00,0.00,VWS V14.00,2013-11-14 01:50:00,
2013-11-13 19:55:00,42.6,34.6,29.95,WNW,297,5.0,5.0,73,0.00,,CLR,0.00,0.00,VWS V14.00,2013-11-14 01:55:00,
2013-11-13 20:00:00,42.6,34.9,29.96,WNW,297,5.0,6.0,74,0.00,,CLR,0.00,0.00,VWS V14.00,2013-11-14 02:00:00,
2013-11-13 20:05:00,42.9,35.2,29.96,WNW,297,4.0,6.0,74,0.00,,CLR,0.00,0.00,VWS V14.00,2013-11-14 02:05:00,
2013-11-13 20:10:00,42.8,34.8,29.95,WNW,297,4.0,6.0,73,0.00,,CLR,0.00,0.00,VWS V14.00,2013-11-14 02:10:00,
2013-11-13 20:15:00,42.7,35.0,29.95,WNW,297,3.0,6.0,74,0.00,,CLR,0.00,0.00,VWS V14.00,2013-11-14 02:15:00,
2013-11-13 20:20:00,42.5,34.8,29.95,WNW,297,2.0,6.0,74,0.00,,CLR,0.00,0.00,VWS V14.00,2013-11-14 02:20:00,
2013-11-13 20:25:00,42.4,34.7,29.95,WNW,297,4.0,6.0,74,0.00,,CLR,0.00,0.00,VWS V14.00,2013-11-14 02:25:00,
2013-11-13 20:30:00,42.3,35.0,29.95,WNW,297,2.0,3.0,75,0.00,,CLR,0.00,0.00,VWS V14.00,2013-11-14 02:30:00,
2013-11-13 20:35:00,42.0,34.7,29.95,WNW,297,2.0,4.0,75,0.00,,CLR,0.00,0.00,VWS V14.00,2013-11-14 02:35:00,
2013-11-13 20:40:00,41.8,34.5,29.95,WNW,297,4.0,6.0,75,0.00,,CLR,0.00,0.00,VWS V14.00,2013-11-14 02:40:00,
2013-11-13 20:45:00,41.6,34.6,29.95,WNW,297,5.0,6.0,76,0.00,,CLR,0.00,0.00,VWS V14.00,2013-11-14 02:45:00,
2013-11-13 20:50:00,41.5,34.5,29.95,WNW,297,4.0,6.0,76,0.00,,CLR,0.00,0.00,VWS V14.00,2013-11-14 02:50:00,
2013-11-13 20:55:00,41.5,34.8,29.95,WNW,297,5.0,6.0,77,0.00,,CLR,0.00,0.00,VWS V14.00,2013-11-14 02:55:00,
2013-11-13 21:00:00,41.7,35.0,29.95,WNW,297,4.0,5.0,77,0.00,,CLR,0.00,0.00,VWS V14.00,2013-11-14 03:00:00,
2013-11-13 21:05:00,41.7,35.0,29.95,WNW,297,3.0,6.0,77,0.00,,CLR,0.00,0.00,VWS V14.00,2013-11-14 03:05:00,
2013-11-13 21:10:00,41.8,35.1,29.95,WNW,297,5.0,6.0,77,0.00,,CLR,0.00,0.00,VWS V14.00,2013-11-14 03:10:00,
2013-11-13 21:15:00,41.7,35.0,29.95,WNW,297,3.0,6.0,77,0.00,,CLR,0.00,0.00,VWS V14.00,2013-11-14 03:15:00,
2013-11-13 21:20:00,41.5,34.8,29.95,WNW,297,4.0,6.0,77,0.00,,CLR,0.00,0.00,VWS V14.00,2013-11-14 03:20:00,
2013-11-13 21:25:00,41.2,34.5,29.95,WNW,297,2.0,6.0,77,0.00,,CLR,0.00,0.00,VWS V14.00,2013-11-14 03:25:00,
2013-11-13 21:30:00,41.1,34.5,29.94,WNW,297,3.0,4.0,77,0.00,,CLR,0.00,0.00,VWS V14.00,2013-11-14 03:30:00,
2013-11-13 21:35:00,41.0,34.7,29.94,WNW,297,4.0,4.0,78,0.00,,CLR,0.00,0.00,VWS V14.00,2013-11-14 03:35:00,
2013-11-13 21:40:00,41.1,34.8,29.94,WNW,297,3.0,4.0,78,0.00,,SCT095,0.00,0.00,VWS V14.00,2013-11-14 03:40:00,
2013-11-13 21:45:00,41.2,34.9,29.94,WNW,297,4.0,5.0,78,0.00,,SCT095,0.00,0.00,VWS V14.00,2013-11-14 03:45:00,
2013-11-13 21:50:00,41.4,35.1,29.94,WNW,297,4.0,5.0,78,0.00,,SCT095,0.00,0.00,VWS V14.00,2013-11-14 03:50:00,
2013-11-13 21:55:00,41.6,35.3,29.94,WNW,297,4.0,5.0,78,0.00,,SCT095,0.00,0.00,VWS V14.00,2013-11-14 03:55:00,
2013-11-13 22:01:00,41.6,35.3,29.94,WNW,297,4.0,5.0,78,0.00,,SCT095,0.00,0.00,VWS V14.00,2013-11-14 04:01:00,
2013-11-13 22:06:00,41.7,35.4,29.93,WNW,297,2.0,5.0,78,0.00,,SCT095,0.00,0.00,VWS V14.00,2013-11-14 04:06:00,
2013-11-13 22:11:00,41.9,35.2,29.93,WNW,297,2.0,5.0,77,0.00,,SCT095,0.00,0.00,VWS V14.00,2013-11-14 04:11:00,
2013-11-13 22:16:00,42.1,35.4,29.93,WNW,297,1.0,5.0,77,0.00,,SCT095,0.00,0.00,VWS V14.00,2013-11-14 04:16:00,
2013-11-13 22:21:00,42.0,35.3,29.93,WNW,297,2.0,5.0,77,0.00,,SCT095,0.00,0.00,VWS V14.00,2013-11-14 04:21:00,
2013-11-13 22:26:00,42.0,35.3,29.93,WNW,297,1.0,5.0,77,0.00,,SCT095,0.00,0.00,VWS V14.00,2013-11-14 04:26:00,
2013-11-13 22:31:00,41.9,35.2,29.93,WNW,297,1.0,2.0,77,0.00,,SCT095,0.00,0.00,VWS V14.00,2013-11-14 04:31:00,
2013-11-13 22:36:00,41.8,35.1,29.93,WNW,297,1.0,2.0,77,0.00,,SCT095,0.00,0.00,VWS V14.00,2013-11-14 04:36:00,
2013-11-13 22:41:00,41.6,34.9,29.93,WNW,297,3.0,3.0,77,0.00,,OVC100,0.00,0.00,VWS V14.00,2013-11-14 04:41:00,
2013-11-13 22:46:00,41.2,34.9,29.92,WNW,297,2.0,4.0,78,0.00,,OVC100,0.00,0.00,VWS V14.00,2013-11-14 04:46:00,
2013-11-13 22:51:00,41.0,34.7,29.92,WNW,297,4.0,4.0,78,0.00,,OVC100,0.00,0.00,VWS V14.00,2013-11-14 04:51:00,
2013-11-13 22:56:00,40.9,34.6,29.92,WNW,297,3.0,5.0,78,0.00,,OVC100,0.00,0.00,VWS V14.00,2013-11-14 04:56:00,
2013-11-13 23:01:00,40.8,34.5,29.92,WNW,297,4.0,6.0,78,0.00,,OVC100,0.00,0.00,VWS V14.00,2013-11-14 05:01:00,
2013-11-13 23:02:00,40.8,34.5,29.92,WNW,297,4.0,6.0,78,0.00,,OVC100,0.00,0.00,VWS V14.00,2013-11-14 05:02:00,
2013-11-13 23:04:00,40.8,34.5,29.92,WNW,288,6.0,8.0,78,0.00,,OVC100,0.00,0.00,VWS V14.00,2013-11-14 05:04:00,
2013-11-13 23:05:00,40.8,34.5,29.92,WNW,284,7.0,8.0,78,0.00,,OVC100,0.00,0.00,VWS V14.00,2013-11-14 05:05:00,
2013-11-13 23:08:00,41.1,34.8,29.92,West,269,8.0,9.0,78,0.00,,OVC100,0.00,0.00,VWS V14.00,2013-11-14 05:08:00,
2013-11-13 23:13:00,41.1,34.1,29.92,West,259,8.0,11.0,76,0.00,,OVC100,0.00,0.00,VWS V14.00,2013-11-14 05:13:00,
2013-11-13 23:18:00,40.9,33.9,29.91,West,259,10.0,11.0,76,0.00,,OVC100,0.00,0.00,VWS V14.00,2013-11-14 05:18:00,
2013-11-13 23:19:00,40.8,33.8,29.91,WSW,257,8.0,11.0,76,0.00,,OVC100,0.00,0.00,VWS V14.00,2013-11-14 05:19:00,
2013-11-13 23:24:00,40.3,33.7,29.91,WSW,257,7.0,11.0,77,0.00,,OVC100,0.00,0.00,VWS V14.00,2013-11-14 05:24:00,
2013-11-13 23:29:00,39.9,33.6,29.92,WSW,257,7.0,11.0,78,0.00,,OVC100,0.00,0.00,VWS V14.00,2013-11-14 05:29:00,
2013-11-13 23:34:00,39.8,33.5,29.91,WSW,256,6.0,8.0,78,0.00,,OVC100,0.00,0.00,VWS V14.00,2013-11-14 05:34:00,
2013-11-13 23:39:00,40.0,33.7,29.91,WSW,256,5.0,8.0,78,0.00,,OVC100,0.00,0.00,VWS V14.00,2013-11-14 05:39:00,
2013-11-13 23:44:00,40.2,33.6,29.90,WSW,256,5.0,8.0,77,0.00,,OVC100,0.00,0.00,VWS V14.00,2013-11-14 05:44:00,
2013-11-13 23:49:00,40.2,33.6,29.90,WSW,256,7.0,8.0,77,0.00,,OVC100,0.00,0.00,VWS V14.00,2013-11-14 05:49:00,
2013-11-13 23:54:00,40.1,33.5,29.90,WSW,256,6.0,8.0,77,0.00,,OVC100,0.00,0.00,VWS V14.00,2013-11-14 05:54:00,
2013-11-13 23:59:00,39.8,33.2,29.90,WSW,256,5.0,8.0,77,0.00,,OVC100,0.00,0.00,VWS V14.00,2013-11-14 05:59:00,